This demonstration page uses our WeatherBlox Daily Observations layout. Learn more.

Left ArrowRight Arrow

Hourly Observations for September 25, 2017

Temp ( °F °C ) Dew Point ( °F °C ) Humidity (%) Winds ( mph kmh ) Pressure ( in mb ) Visibility ( mi km ) Precip ( " mm )
12:06 am 00:06 Cloudy with Rain 63 17.2 62 16.7 97 97 NNE 9 15 29.91 1013 5 8.0467 0.02 0.508
12:29 am 00:29 Cloudy with Rain 63 17.2 62 16.7 97 97 NNE 7 11 29.91 1013 4 6.43736 0.07 1.778
12:54 am 00:54 Cloudy with Light Rain 63 17.2 62 16.7 97 97 NNE 9 15 29.91 1013 10 16.0934 0.07 1.778
1:54 am 01:54 Cloudy 63 17.2 62 16.7 97 97 WNW 16 26 29.91 1013 10 16.0934 0 0.0254
2:02 am 02:02 Cloudy with Nearby Thunderstorms 63 17.2 61 16.1 93 93 N 15 24 29.91 1013 3 4.82802 0.01 0.254
2:06 am 02:06 Cloudy with Heavy Thunderstorms 62 16.7 61 16.1 96 96 N 16 26 29.88 1012 2.5 4.02335 0.1 2.54
2:11 am 02:11 Windy with Storms Likely 63 17.2 61 16.1 93 93 N 23 37 29.88 1012 3 4.82802 0.12 3.048
2:21 am 02:21 Cloudy with Light Rain 62 16.7 60 15.6 93 93 N 9 15 29.88 1012 10 16.0934 0.12 3.048
2:29 am 02:29 Cloudy 62 16.7 61 16.1 96 96 N 13 20 29.91 1013 10 16.0934 0.12 3.048
2:34 am 02:34 Cloudy with Nearby Thunderstorms 62 16.7 60 15.6 93 93 N 12 19 29.88 1012 10 16.0934 0.12 3.048
2:49 am 02:49 Cloudy with Light Rain 63 17 61 16 94 94 N 12 19 29.88 1012 9 14.48406 0.12 3.048
2:54 am 02:54 Cloudy with Light Rain 62 16.7 61 16.1 96 96 N 10 17 29.89 1012 8 12.87472 0.12 3.048
3:05 am 03:05 Mostly Cloudy with Nearby Thunderstorms 61 16.1 60 15.6 97 97 NW 9 15 29.91 1013 10 16.0934 0.01 0.254
3:23 am 03:23 Cloudy with Light Thunderstorms 61 16.1 60 15.6 97 97 N 15 24 29.91 1013 6 9.65604 0.07 1.778
3:28 am 03:28 Mostly Cloudy with Light Thunderstorms 61 16.1 60 15.6 97 97 N 12 19 29.88 1012 9 14.48406 0.07 1.778
3:38 am 03:38 Mostly Cloudy with Nearby Thunderstorms 60 15.6 59 15 96 96 N 12 19 29.94 1014 10 16.0934 0.07 1.778
3:51 am 03:51 Mostly Cloudy 61 16 59 15 94 94 N 8 13 29.94 1014 10 16.0934 0.07 1.778
3:54 am 03:54 Mostly Cloudy 60 15.6 59 15 96 96 N 8 13 29.91 1013 10 16.0934 0.07 1.778
4:01 am 04:01 Mostly Cloudy 60 15.6 59 15 96 96 N 8 13 29.94 1014 10 16.0934 0 0
4:54 am 04:54 Cloudy 60 15.6 58 14.4 93 93 N 10 17 29.92 1013 10 16.0934 0 0
5:54 am 05:54 Cloudy 58 14.4 56 13.3 93 93 N 13 20 29.92 1013 10 16.0934 0 0
6:54 am 06:54 Cloudy 58 14.4 56 13.3 93 93 NNE 10 17 29.94 1014 10 16.0934 0 0
7:54 am 07:54 Cloudy 58 14.4 56 13.3 93 93 NE 9 15 29.95 1014 10 16.0934 0 0.0254
8:54 am 08:54 Cloudy with Light Rain 59 15 57 13.9 93 93 E 6 9 29.94 1014 6 9.65604 0.02 0.508
9:27 am 09:27 Cloudy with Rain 59 15 58 14.4 96 96 NNE 3 6 29.97 1015 2.5 4.02335 0.09 2.286
9:35 am 09:35 Cloudy with Light Rain 59 15 58 14.4 96 96 NNE 5 7 29.97 1015 4 6.43736 0.1 2.54
9:54 am 09:54 Cloudy with Nearby Thunderstorms 60 15.6 58 14.4 93 93 NNE 6 9 29.96 1015 4 6.43736 0.14 3.556
10:11 am 10:11 Cloudy with Light Rain 60 15.6 58 14.4 93 93 NNE 6 9 29.97 1015 3 4.82802 0.03 0.762
10:21 am 10:21 Cloudy with Rain 60 15.6 58 14.4 93 93 NNW 7 11 29.97 1015 2 3.21868 0.07 1.778
10:54 am 10:54 Cloudy with Light Rain 60 15.6 59 15 96 96 NE 6 9 29.95 1014 4 6.43736 0.16 4.064
11:54 am 11:54 Cloudy with Light Rain 62 16.7 60 15.6 93 93 N 8 13 29.93 1014 8 12.87472 0.06 1.524
12:54 pm 12:54 Cloudy with Light Rain 62 16.7 60 15.6 93 93 NW 10 17 29.96 1015 10 16.0934 0.07 1.778
1:54 pm 13:54 Cloudy with Light Rain 61 16.1 59 15 93 93 NNW 14 22 29.92 1013 5 8.0467 0.05 1.27
2:54 pm 14:54 Cloudy 62 16.7 60 15.6 93 93 NNE 7 11 29.93 1014 10 16.0934 0.02 0.508
3:54 pm 15:54 Cloudy with Light Rain 62 16.7 59 15 90 90 N 6 9 29.93 1014 8 12.87472 0 0.0254
4:54 pm 16:54 Cloudy 63 17.2 60 15.6 90 90 N 8 13 29.92 1013 10 16.0934 0 0.0254
5:54 pm 17:54 Cloudy 62 16.7 60 15.6 93 93 N 15 24 29.91 1013 8 12.87472 0 0
6:36 pm 18:36 Cloudy with Light Rain 61 16.1 59 15 93 93 N 13 20 29.91 1013 2.5 4.02335 0.01 0.254
6:43 pm 18:43 Cloudy with Light Rain 60 15.6 59 15 96 96 N 14 22 29.94 1014 5 8.0467 0.01 0.254
6:54 pm 18:54 Cloudy with Light Rain 60 15.6 58 14.4 93 93 N 12 19 29.94 1014 10 16.0934 0.01 0.254
7:54 pm 19:54 Cloudy with Light Rain 59 15 57 13.9 93 93 N 10 17 29.95 1014 7 11.26538 0 0.0254
8:54 pm 20:54 Cloudy with Light Rain 59 15 57 13.9 93 93 NNW 10 17 29.98 1015 10 16.0934 0.01 0.254
9:54 pm 21:54 Cloudy with Light Rain 58 14.4 56 13.3 93 93 NNW 8 13 29.98 1015 10 16.0934 0.02 0.508
10:54 pm 22:54 Cloudy with Light Rain 57 13.9 55 12.8 93 93 N 10 17 29.98 1015 10 16.0934 0.02 0.508
11:07 pm 23:07 Cloudy with Light Rain 57 13.9 55 12.8 93 93 N 8 13 30 1016 10 16.0934 0 0.0254
11:54 pm 23:54 Mostly Cloudy with Light Rain 57 13.9 56 13.3 96 96 NNW 8 13 29.98 1015 10 16.0934 0.02 0.508

Powered by AerisWeather